Home > Weather > Voronezh > Past weeks

Flag for Russia Weather for the Past 2 Weeks in Voronezh, Russia

Now
61 °F

Partly sunny.


Feels Like: 61 °F
Forecast: 47 / 68 °F
Wind: 3 mph from Northeast

Location: Voronez

Current Time: May 6, 2016 at 6:55:28 PM

Latest Report: May 6, 2016 at 6:00 PM


Visibility: N/A

Pressure: 29.95 "Hg

Humidity: 63%

Dew Point: 48 °F

Location of VoronezhLocation

Historic Weather in Voronezh — Graph

°F

Voronezh Temperature Yesterday

Maximum temperature yesterday: 68 °F (at 12:30 PM)
Minimum temperature yesterday: 39 °F (at 4:00 AM)
Average temperature yesterday: 54 °F

High & Low Weather Summary for the Past Weeks

 TemperatureHumidityPressure
High70 °F (May 6, 3:00 PM)100% (Apr 24, 2:00 AM)30.15 "Hg (Apr 24, 2:00 AM)
Low30 °F (Apr 24, 2:00 AM)23% (May 4, 4:30 PM)29.59 "Hg (Apr 22, 8:00 PM)
Average51 °F72%29.91 "Hg
* Reported Apr 21 5:00 PM — May 6 5:30 PM, Voronezh, Weather by CustomWeather, © 2016

Note: Actual official high and low records may vary slightly from our data, if they occured in-between our weather recording intervals... More about our weather records

Advertising

Voronezh Weather History for the Previous 24 Hours

Scroll right to see more
 ConditionsComfort  
Time TempWeatherWind HumidityBarometerVisibility
5:30 PM
Fri, May 6
59 °FSprinkles. Partly sunny.10 mph68%29.95 "Hg6 mi
5:00 PM68 °FPartly sunny.10 mph33%29.95 "HgN/A
4:30 PM66 °FPartly sunny.8 mph35%29.95 "HgN/A
4:00 PM66 °FPartly sunny.10 mph35%29.95 "HgN/A
3:30 PM70 °FPartly sunny.15 mph31%29.92 "HgN/A
3:00 PM70 °FPartly sunny.10 mph33%29.92 "HgN/A
2:30 PM66 °FPartly sunny.13 mph35%29.95 "HgN/A
2:00 PM68 °FPartly sunny.10 mph38%29.95 "HgN/A
1:30 PM66 °FPartly sunny.13 mph37%29.95 "HgN/A
1:00 PM68 °FPassing clouds.13 mph33%29.95 "HgN/A
12:30 PM68 °FPassing clouds.13 mph35%29.95 "HgN/A
12:00 PM68 °FSunny.10 mph35%29.95 "Hg10 mi
11:30 AM66 °FPassing clouds.10 mph43%29.95 "HgN/A
11:00 AM66 °FPassing clouds.8 mph46%29.95 "HgN/A
10:30 AM64 °FSunny.8 mph52%29.95 "Hg10 mi
10:00 AM63 °FSunny.8 mph59%29.95 "Hg10 mi
9:30 AM61 °FSunny.8 mph63%29.95 "Hg10 mi
9:00 AM59 °FPassing clouds.6 mph68%29.95 "HgN/A
8:30 AM57 °FSunny.6 mph72%29.95 "Hg10 mi
8:00 AM57 °FSunny.6 mph72%29.95 "Hg10 mi
7:30 AM55 °FSunny.3 mph77%29.95 "Hg10 mi
7:00 AM52 °FSunny.1 mph88%29.95 "Hg10 mi
6:30 AM50 °FClear.1 mph94%29.95 "Hg5 mi
6:00 AM48 °FClear.3 mph94%29.95 "Hg4 mi
5:30 AM48 °FClear.6 mph94%29.95 "HgN/A
5:00 AM48 °FSunny.3 mph94%29.95 "Hg10 mi
4:30 AM48 °FClear.3 mph94%29.95 "Hg10 mi
4:00 AM48 °FClear.3 mph94%29.95 "Hg10 mi
3:30 AM48 °FClear.3 mph94%29.95 "Hg10 mi
3:00 AM50 °FClear.1 mph88%29.95 "Hg10 mi
2:30 AM50 °FClear.3 mph82%29.95 "Hg10 mi
2:00 AM50 °FClear.3 mph82%29.95 "Hg10 mi
1:30 AM50 °FClear.3 mph82%29.95 "Hg10 mi
1:00 AM48 °FClear.1 mph87%29.95 "Hg10 mi
12:30 AM48 °FClear.1 mph94%29.95 "Hg10 mi
12:00 AM50 °FPassing clouds.1 mph88%29.95 "HgN/A
11:30 PM
Thu, May 5
48 °FPassing clouds.6 mph94%29.95 "Hg6 mi
11:00 PM48 °FFog.1 mph94%29.95 "Hg5 mi
10:30 PM50 °FSprinkles. Passing clouds.3 mph88%29.95 "Hg6 mi
10:00 PM50 °FSprinkles. Passing clouds.1 mph88%29.95 "HgN/A
9:30 PM50 °FSprinkles. Passing clouds.3 mph82%29.95 "HgN/A
9:00 PM52 °FSprinkles. Passing clouds.3 mph77%29.95 "HgN/A
8:30 PM52 °FSprinkles. Passing clouds.3 mph72%29.95 "HgN/A
8:00 PM52 °FSprinkles. Passing clouds.8 mph77%29.95 "HgN/A
7:30 PM54 °FPartly sunny.8 mph72%29.95 "HgN/A
7:00 PM55 °FPartly sunny.6 mph63%29.95 "HgN/A
6:30 PM54 °FSprinkles. Partly sunny.8 mph72%29.92 "HgN/A
6:00 PM55 °FSprinkles. Partly sunny.10 mph67%29.92 "HgN/A
Weather by CustomWeather, © 2016

See weather overviewHow to use our weather pages